GW6564 Weather Reports


time (UTC)temp
C
wind
direction
speed
KPH
gust
KPH
rain 1hr
cm
rain 24hr
cm
rain mn
cm
humidity
%
barometer
mb
20260506192640 19 189 11.3 20.9 0.00 0.00 0.00 74 1007.4
20260506192136 19 260 3.2 20.9 0.00 0.00 0.00 74 1007.4
20260506191633 19 239 9.7 14.5 0.00 0.00 0.00 73 1007.3
20260506191129 19 268 12.9 24.1 0.00 0.00 0.00 73 1007.2
20260506190627 19 252 4.8 16.1 0.00 0.00 0.00 74 1007.4
20260506190123 19 235 9.7 20.9 0.00 0.00 0.00 74 1007.4
20260506185621 19 234 4.8 17.7 0.00 0.00 0.00 74 1007.4
20260506185116 19 272 6.4 14.5 0.00 0.00 0.00 74 1007.4
20260506184614 19 256 6.4 22.5 0.00 0.00 0.00 75 1007.5
20260506184111 19 255 6.4 12.9 0.00 0.00 0.00 75 1007.7
20260506183608 18 237 6.4 17.7 0.00 0.00 0.00 75 1007.6
20260506183104 18 260 9.7 24.1 0.00 0.00 0.00 76 1007.7
20260506182602 18 261 3.2 14.5 0.00 0.00 0.00 77 1007.8
20260506182058 18 246 8.0 12.9 0.00 0.00 0.00 79 1007.7
20260506181556 18 236 9.7 12.9 0.00 0.00 0.00 80 1007.8
20260506181053 18 221 8.0 20.9 0.00 0.00 0.00 78 1007.7
20260506180549 18 293 9.7 12.9 0.00 0.00 0.00 75 1007.6
20260506180046 19 212 8.0 12.9 0.00 0.00 0.00 74 1007.8
20260506175542 19 223 9.7 14.5 0.00 0.00 0.00 72 1007.8
20260506175039 19 287 3.2 33.8 0.00 0.00 0.00 72 1008.0
20260506174538 19 162 8.0 29.0 0.00 0.00 0.00 72 1008.0
20260506174033 19 242 8.0 14.5 0.00 0.00 0.00 72 1008.0
20260506173531 19 188 11.3 20.9 0.00 0.00 0.00 73 1008.0
20260506173028 19 234 12.9 22.5 0.00 0.00 0.00 72 1008.0
20260506172526 19 237 8.0 11.3 0.00 0.00 0.00 72 1008.1
20260506172021 19 202 6.4 11.3 0.00 0.00 0.00 72 1008.1
20260506171519 19 213 24.1 29.0 0.00 0.00 0.00 71 1008.2
20260506171017 19 214 8.0 25.7 0.00 0.00 0.00 73 1008.2
20260506170514 19 254 6.4 22.5 0.00 0.00 0.00 73 1008.3
20260506170012 19 208 14.5 29.0 0.00 0.00 0.00 73 1008.2
20260506165510 19 247 4.8 17.7 0.00 0.00 0.00 73 1008.3
20260506165005 19 199 11.3 17.7 0.00 0.00 0.00 72 1008.3
20260506164502 19 181 12.9 22.5 0.00 0.00 0.00 73 1008.2
20260506164000 19 241 4.8 11.3 0.00 0.00 0.00 75 1008.5
20260506163455 19 212 17.7 24.1 0.00 0.00 0.00 72 1008.6
20260506162950 20 193 12.9 17.7 0.00 0.00 0.00 70 1008.6
20260506162448 20 253 8.0 14.5 0.00 0.00 0.00 68 1008.7
20260506161945 20 263 9.7 16.1 0.00 0.00 0.00 67 1008.9
20260506161443 20 263 8.0 22.5 0.00 0.00 0.00 67 1009.2
20260506160940 20 245 6.4 14.5 0.00 0.00 0.00 67 1009.2
20260506160437 20 218 8.0 12.9 0.00 0.00 0.00 66 1009.3
20260506155935 20 218 6.4 12.9 0.00 0.00 0.00 66 1009.4
20260506155432 20 250 6.4 14.5 0.00 0.00 0.00 65 1009.5
20260506153554 20 219 6.4 22.5 0.00 0.00 0.00 65 1009.4
20260506153051 20 204 8.0 16.1 0.00 0.00 0.00 64 1009.2
20260506152548 20 229 9.7 14.5 0.00 0.00 0.00 63 1009.4
20260506152046 20 230 8.0 27.4 0.00 0.00 0.00 61 1009.4
20260506151544 21 236 3.2 4.8 0.00 0.00 0.00 61 1009.4
20260506151041 21 216 9.7 20.9 0.00 0.00 0.00 60 1009.5
20260506150537 21 249 6.4 11.3 0.00 0.00 0.00 60 1009.2
20260506150034 21 201 16.1 24.1 0.00 0.00 0.00 59 1009.1
20260506145531 21 228 16.1 20.9 0.00 0.00 0.00 59 1009.1
20260506145028 21 202 14.5 20.9 0.00 0.00 0.00 59 1009.5
20260506144525 20 228 11.3 17.7 0.00 0.00 0.00 60 1009.5
20260506144022 20 225 6.4 12.9 0.00 0.00 0.00 60 1009.5
20260506143520 20 238 4.8 6.4 0.00 0.00 0.00 61 1009.6
20260506143018 20 266 17.7 17.7 0.00 0.00 0.00 60 1009.6
20260506142515 20 212 6.4 22.5 0.00 0.00 0.00 60 1009.3
20260506142013 20 201 9.7 14.5 0.00 0.00 0.00 60 1009.5
20260506141511 20 201 9.7 22.5 0.00 0.00 0.00 59 1009.4
20260506141009 21 198 25.7 35.4 0.00 0.00 0.00 58 1009.4
20260506140506 21 201 8.0 24.1 0.00 0.00 0.00 58 1009.5
20260506140003 21 252 9.7 22.5 0.00 0.00 0.00 58 1009.4
20260506135500 21 241 6.4 17.7 0.00 0.00 0.00 59 1009.4
20260506134956 20 242 3.2 11.3 0.00 0.00 0.00 60 1009.2
20260506134452 20 253 6.4 14.5 0.00 0.00 0.00 61 1009.1
20260506133949 20 176 14.5 22.5 0.00 0.00 0.00 61 1009.4
20260506133446 20 226 14.5 17.7 0.00 0.00 0.00 61 1009.4
20260506132943 20 223 19.3 24.1 0.00 0.00 0.00 61 1009.2
20260506132440 20 249 12.9 16.1 0.00 0.00 0.00 61 1009.2
20260506131937 20 254 9.7 22.5 0.00 0.00 0.00 61 1009.4
20260506131434 20 205 11.3 14.5 0.00 0.00 0.00 61 1009.4
20260506130931 20 204 11.3 22.5 0.00 0.00 0.00 61 1009.6
20260506130427 20 222 14.5 24.1 0.00 0.00 0.00 61 1009.6
20260506125925 20 236 4.8 25.7 0.00 0.00 0.00 61 1009.6
20260506125423 20 232 14.5 27.4 0.00 0.00 0.00 61 1009.4
20260506124921 20 273 11.3 16.1 0.00 0.00 0.00 61 1009.6
20260506124418 20 268 6.4 12.9 0.00 0.00 0.00 62 1009.6
20260506123916 20 194 6.4 22.5 0.00 0.00 0.00 62 1009.5
20260506123414 20 260 3.2 16.1 0.00 0.00 0.00 63 1009.6
20260506122911 20 217 6.4 16.1 0.00 0.00 0.00 63 1009.6
20260506122408 20 217 14.5 22.5 0.00 0.00 0.00 62 1009.5
20260506121907 20 248 6.4 11.3 0.00 0.00 0.00 65 1009.4
20260506121403 20 206 22.5 35.4 0.00 0.00 0.00 64 1009.4
20260506120900 19 221 9.7 16.1 0.00 0.00 0.00 66 1009.3
20260506120357 18 184 11.3 20.9 0.00 0.00 0.00 67 1009.5
20260506115855 18 193 6.4 12.9 0.00 0.00 0.00 69 1009.6
20260506115353 18 182 11.3 20.9 0.00 0.00 0.00 68 1009.5
20260506114850 18 209 9.7 24.1 0.00 0.00 0.00 68 1009.6
20260506114348 18 236 8.0 16.1 0.00 0.00 0.00 69 1009.5
20260506113847 18 210 8.0 12.9 0.00 0.00 0.00 69 1009.5
20260506113343 18 230 11.3 27.4 0.00 0.00 0.00 69 1009.5
20260506112840 18 202 9.7 22.5 0.00 0.00 0.00 69 1009.4
20260506112337 18 248 9.7 16.1 0.00 0.00 0.00 69 1009.5
20260506111835 18 190 4.8 14.5 0.00 0.00 0.00 69 1009.4
20260506111333 18 206 9.7 17.7 0.00 0.00 0.00 69 1009.5
20260506110830 18 223 6.4 22.5 0.00 0.00 0.00 69 1009.5
20260506110327 18 233 6.4 14.5 0.00 0.00 0.00 70 1009.6
20260506105824 18 209 9.7 24.1 0.00 0.00 0.00 70 1009.5
20260506105320 17 226 20.9 27.4 0.00 0.00 0.00 71 1009.6
20260506104818 17 238 6.4 14.5 0.00 0.00 0.00 71 1009.4
20260506104316 17 209 8.0 17.7 0.00 0.00 0.00 72 1009.4
20260506103813 17 194 4.8 11.3 0.00 0.00 0.00 72 1009.5
20260506103310 17 196 14.5 20.9 0.00 0.00 0.00 72 1009.4
20260506102807 17 216 6.4 14.5 0.00 0.00 0.00 73 1009.5
20260506102306 17 227 12.9 20.9 0.00 0.00 0.00 73 1009.6
20260506101802 17 234 6.4 22.5 0.00 0.00 0.00 73 1009.8
20260506101258 17 203 11.3 14.5 0.00 0.00 0.00 73 1009.8
20260506100757 17 224 8.0 17.7 0.00 0.00 0.00 74 1009.6
20260506100254 17 247 4.8 14.5 0.00 0.00 0.00 74 1009.6
20260506095753 17 209 11.3 17.7 0.00 0.00 0.00 74 1009.6
20260506095249 17 224 4.8 11.3 0.00 0.00 0.00 74 1009.5
20260506094746 17 224 4.8 14.5 0.00 0.00 0.00 74 1009.3
20260506094244 17 262 6.4 9.7 0.00 0.00 0.00 74 1009.5
20260506093742 17 221 9.7 16.1 0.00 0.00 0.00 74 1009.3
20260506093239 17 237 9.7 14.5 0.00 0.00 0.00 74 1009.4
20260506092737 17 198 4.8 14.5 0.00 0.00 0.00 74 1009.5
20260506092235 17 238 6.4 16.1 0.00 0.00 0.00 74 1009.3
20260506091732 17 237 6.4 22.5 0.00 0.00 0.00 74 1009.6
20260506091229 17 213 8.0 16.1 0.00 0.00 0.00 74 1009.5
20260506090727 17 186 6.4 11.3 0.00 0.00 0.00 74 1009.4
20260506090223 17 207 11.3 16.1 0.00 0.00 0.00 74 1009.3
20260506085720 17 229 8.0 14.5 0.00 0.00 0.00 74 1009.3
20260506085217 17 209 19.3 22.5 0.00 0.00 0.00 74 1009.7
20260506084713 18 228 6.4 9.7 0.00 0.00 0.00 74 1009.7
20260506084209 17 224 6.4 14.5 0.00 0.00 0.00 74 1009.6
20260506083707 18 198 4.8 12.9 0.00 0.00 0.00 74 1009.7
20260506083205 18 232 4.8 14.5 0.00 0.00 0.00 74 1009.6
20260506082702 18 221 9.7 14.5 0.00 0.00 0.00 73 1009.6
20260506082202 18 281 9.7 12.9 0.00 0.00 0.00 74 1009.9
20260506081700 18 230 11.3 17.7 0.00 0.00 0.00 73 1009.8
20260506081158 18 249 3.2 14.5 0.00 0.00 0.00 73 1009.9
20260506080655 18 242 8.0 12.9 0.00 0.00 0.00 73 1009.9
20260506080152 18 219 9.7 16.1 0.00 0.00 0.00 73 1009.8
20260506073136 18 228 4.8 17.7 0.00 0.00 0.00 72 1009.6
20260506072632 18 171 8.0 16.1 0.00 0.00 0.00 72 1009.7
20260506072130 18 231 6.4 9.7 0.00 0.00 0.00 72 1009.7
20260506071628 18 212 8.0 14.5 0.00 0.00 0.00 72 1009.7
20260506071125 18 268 6.4 12.9 0.00 0.00 0.00 72 1009.7
20260506070622 18 228 6.4 22.5 0.00 0.00 0.00 72 1009.7
20260506070119 18 221 6.4 17.7 0.00 0.00 0.00 72 1009.9
20260506062056 18 223 3.2 14.5 0.00 0.00 0.00 71 1009.9
20260506061552 18 229 4.8 12.9 0.00 0.00 0.00 71 1009.8
20260506061050 18 235 8.0 14.5 0.00 0.00 0.00 71 1009.9
20260506060548 18 211 9.7 20.9 0.00 0.00 0.00 71 1010.1
20260506051017 20 248 1.6 9.7 0.00 0.00 0.00 69 1010.4
20260506050515 20 236 4.8 17.7 0.00 0.00 0.00 68 1010.4
20260506045005 20 245 9.7 17.7 0.00 0.00 0.00 68 1010.4
20260506044504 20 216 11.3 30.6 0.00 0.00 0.00 68 1010.4
20260506044000 20 227 9.7 24.1 0.00 0.00 0.00 68 1010.5
20260506043457 20 216 6.4 14.5 0.00 0.00 0.00 67 1010.2
20260506042955 20 219 12.9 17.7 0.00 0.00 0.00 67 1010.3
20260506042454 20 220 4.8 12.9 0.00 0.00 0.00 67 1010.4
20260506041951 20 269 6.4 17.7 0.00 0.00 0.00 67 1010.4
20260506041450 20 211 11.3 17.7 0.00 0.00 0.00 66 1010.5
20260506040946 20 200 8.0 16.1 0.00 0.00 0.00 66 1010.3
20260506040444 20 228 16.1 20.9 0.00 0.00 0.00 66 1010.3
20260506035940 20 174 1.6 11.3 0.00 0.00 0.00 65 1010.1
20260506035437 20 194 3.2 25.7 0.00 0.00 0.00 65 1010.2
20260506034934 20 205 11.3 24.1 0.00 0.00 0.00 65 1010.5
20260506034431 20 238 4.8 11.3 0.00 0.00 0.00 65 1010.2
20260506033928 20 258 6.4 14.5 0.00 0.00 0.00 64 1010.4
20260506033426 20 223 1.6 16.1 0.00 0.00 0.00 64 1010.5
20260506032922 20 151 9.7 17.7 0.00 0.00 0.00 64 1010.3
20260506032419 20 226 11.3 17.7 0.00 0.00 0.00 63 1010.3
20260506031916 20 226 8.0 22.5 0.00 0.00 0.00 63 1010.3
20260506031413 20 206 4.8 14.5 0.00 0.00 0.00 62 1010.4
20260506030911 20 231 6.4 12.9 0.00 0.00 0.00 62 1010.4
20260506030409 20 203 16.1 22.5 0.00 0.00 0.00 62 1010.4
20260506025905 20 258 11.3 24.1 0.00 0.00 0.00 62 1010.3
20260506025402 20 240 12.9 17.7 0.00 0.00 0.00 61 1010.4
20260506024859 20 229 11.3 16.1 0.00 0.00 0.00 61 1010.6
20260506024356 20 259 8.0 20.9 0.00 0.00 0.00 61 1010.5
20260506023852 20 193 9.7 17.7 0.00 0.00 0.00 60 1010.7
20260506023349 21 206 11.3 17.7 0.00 0.00 0.00 59 1010.6
20260506022845 21 215 14.5 17.7 0.00 0.00 0.00 59 1010.5
20260506022343 21 214 11.3 17.7 0.00 0.00 0.00 58 1010.4
20260506021841 21 250 11.3 27.4 0.00 0.00 0.00 58 1010.4
20260506021338 21 209 8.0 14.5 0.00 0.00 0.00 57 1010.6
20260506020834 21 251 12.9 17.7 0.00 0.00 0.00 57 1010.4
20260506020332 21 189 6.4 12.9 0.00 0.00 0.00 56 1010.2
20260506015830 21 226 9.7 17.7 0.00 0.00 0.00 56 1010.5
20260506015327 21 203 17.7 24.1 0.00 0.00 0.00 55 1010.3
20260506014824 21 239 6.4 22.5 0.00 0.00 0.00 55 1010.2
20260506014320 21 232 12.9 20.9 0.00 0.00 0.00 54 1010.0
20260506013817 21 213 11.3 14.5 0.00 0.00 0.00 54 1010.0
20260506013314 21 221 11.3 17.7 0.00 0.00 0.00 54 1010.2
20260506012811 21 246 9.7 12.9 0.00 0.00 0.00 54 1010.1
20260506012308 21 235 9.7 17.7 0.00 0.00 0.00 54 1010.1
20260506011805 21 219 4.8 20.9 0.00 0.00 0.00 54 1010.0
20260506011301 21 220 9.7 25.7 0.00 0.00 0.00 54 1009.8
20260506010759 21 223 14.5 22.5 0.00 0.00 0.00 54 1009.9
20260506010257 21 197 9.7 14.5 0.00 0.00 0.00 54 1009.7
20260506005754 21 240 6.4 16.1 0.00 0.00 0.00 54 1009.9
20260506005251 21 236 14.5 22.5 0.00 0.00 0.00 54 1009.9
20260506004746 22 159 3.2 12.9 0.00 0.00 0.00 54 1009.8
20260506004245 22 202 16.1 22.5 0.00 0.00 0.00 54 1009.7
20260506003740 22 225 14.5 24.1 0.00 0.00 0.00 54 1009.6
20260506003237 22 246 3.2 17.7 0.00 0.00 0.00 53 1009.6
20260506002733 22 193 9.7 16.1 0.00 0.00 0.00 53 1009.6
20260506002229 22 261 3.2 14.5 0.00 0.00 0.00 52 1009.5
20260506001725 22 215 6.4 11.3 0.00 0.00 0.00 51 1009.3
20260506001223 23 212 9.7 16.1 0.00 0.00 0.00 50 1009.5
20260506000719 23 193 8.0 12.9 0.00 0.00 0.00 48 1009.5
20260506000219 23 224 6.4 17.7 0.00 0.00 0.00 47 1009.5
20260505235714 23 229 1.6 6.4 0.00 0.00 0.00 46 1009.3
20260505235212 23 193 8.0 11.3 0.00 0.00 0.00 44 1009.3
20260505234708 24 259 3.2 11.3 0.00 0.00 0.00 44 1009.2
20260505234206 24 180 11.3 27.4 0.00 0.00 0.00 43 1009.2
20260505233702 24 235 1.6 20.9 0.00 0.00 0.00 42 1009.1
20260505233200 25 229 6.4 17.7 0.00 0.00 0.00 41 1008.9
20260505232657 25 161 8.0 16.1 0.00 0.00 0.00 40 1009.1
20260505232155 25 230 4.8 17.7 0.00 0.00 0.00 39 1008.9
20260505231651 25 207 3.2 14.5 0.00 0.00 0.00 37 1008.8
20260505231150 26 200 14.5 20.9 0.00 0.00 0.00 36 1008.7
20260505230648 26 238 6.4 11.3 0.00 0.00 0.00 37 1008.9
20260505230144 26 207 12.9 20.9 0.00 0.00 0.00 37 1008.7
20260505225640 26 268 4.8 20.9 0.00 0.00 0.00 37 1008.7
20260505225137 26 244 6.4 22.5 0.00 0.00 0.00 36 1008.8
20260505224633 26 238 12.9 30.6 0.00 0.00 0.00 36 1008.7
20260505224131 26 235 9.7 12.9 0.00 0.00 0.00 36 1008.9
20260505223628 26 221 17.7 20.9 0.00 0.00 0.00 36 1008.8
20260505223124 26 229 8.0 27.4 0.00 0.00 0.00 36 1008.9
20260505222621 26 203 9.7 24.1 0.00 0.00 0.00 36 1008.8
20260505222117 27 238 8.0 17.7 0.00 0.00 0.00 36 1008.9
20260505221614 27 210 20.9 35.4 0.00 0.00 0.00 35 1008.9
20260505221110 27 266 11.3 27.4 0.00 0.00 0.00 35 1008.6
20260505220608 27 192 11.3 22.5 0.00 0.00 0.00 35 1008.5
20260505220106 27 196 11.3 16.1 0.00 0.00 0.00 35 1008.7
20260505215603 27 218 14.5 24.1 0.00 0.00 0.00 35 1008.7
20260505215101 27 226 8.0 24.1 0.00 0.00 0.00 35 1008.7
20260505214559 27 188 11.3 17.7 0.00 0.00 0.00 33 1008.5
20260505214056 27 310 12.9 24.1 0.00 0.00 0.00 33 1008.6
20260505213553 27 225 16.1 25.7 0.00 0.00 0.00 33 1008.5
20260505213049 27 240 6.4 16.1 0.00 0.00 0.00 32 1008.6
20260505212546 28 254 6.4 20.9 0.00 0.00 0.00 32 1008.4
20260505212044 27 285 8.0 27.4 0.00 0.00 0.00 31 1008.6
20260505211540 27 256 16.1 22.5 0.00 0.00 0.00 31 1008.3
20260505211037 28 229 9.7 29.0 0.00 0.00 0.00 31 1008.4
20260505210534 28 239 4.8 22.5 0.00 0.00 0.00 31 1008.3
20260505210031 28 250 11.3 22.5 0.00 0.00 0.00 30 1008.1
20260505205529 28 224 8.0 17.7 0.00 0.00 0.00 30 1008.2
20260505205026 28 214 6.4 25.7 0.00 0.00 0.00 31 1008.2
20260505204524 28 289 16.1 25.7 0.00 0.00 0.00 30 1008.0
20260505204021 28 219 9.7 25.7 0.00 0.00 0.00 30 1008.1
20260505203517 28 271 8.0 22.5 0.00 0.00 0.00 30 1007.8
20260505203014 28 213 11.3 27.4 0.00 0.00 0.00 30 1008.0
20260505202510 28 303 17.7 29.0 0.00 0.00 0.00 30 1007.9
20260505202006 28 272 8.0 16.1 0.00 0.00 0.00 31 1008.1
20260505201504 28 289 9.7 27.4 0.00 0.00 0.00 32 1007.9
20260505201001 28 207 22.5 29.0 0.00 0.00 0.00 32 1008.1
20260505200459 28 179 3.2 17.7 0.00 0.00 0.00 33 1008.2
20260505195954 28 251 9.7 33.8 0.00 0.00 0.00 33 1008.1
20260505195451 28 197 16.1 29.0 0.00 0.00 0.00 32 1008.4
20260505194949 28 253 4.8 29.0 0.00 0.00 0.00 34 1008.1
20260505194446 28 201 19.3 33.8 0.00 0.00 0.00 33 1008.5
20260505193946 28 229 12.9 17.7 0.00 0.00 0.00 35 1008.2
20260505193444 28 184 9.7 25.7 0.00 0.00 0.00 34 1008.5